Change the Weather History Date:

Sunday, March 16, 2014

  Actual Average Record
Temperature  
Mean Temperature 42 °F -  
Max Temperature 55 °F 47 °F 127 °F (1999)
Min Temperature 30 °F 25 °F 10 °F (1960)
Degree Days  
Heating Degree Days 22    
Moisture  
Dew Point 27 °F    
Average Humidity 63    
Maximum Humidity 82    
Minimum Humidity 35    
Precipitation  
Precipitation 0.00 in - - ()
Sea Level Pressure  
Sea Level Pressure 30.15 in    
Wind  
Wind Speed 8 mph (West)    
Max Wind Speed 14 mph    
Max Gust Speed 18 mph    
Visibility 10 miles    
Events      
Averages and records for this station are not official NWS values.
T = Trace of Precipitation, MM = Missing Value Source: NWS Daily Summary

Daily Weather History Graph

Daily Weather History Graph

Search for Another Location

Airport or City:

Trip Planner

Search our weather history database for the weather conditions in past years. The results will help you decide how hot, cold, wet, or windy it might be!

Date:

Astronomy

Mar. 16, 2014 Rise Set
Actual Time 6:57 AM MDT 6:54 PM MDT
Civil Twilight 6:29 AM MDT 7:22 PM MDT
Nautical Twilight 5:57 AM MDT 7:54 PM MDT
Astronomical Twilight 5:25 AM MDT 8:27 PM MDT
Moon 7:14 PM MDT (3/16) 6:41 AM MDT (3/16)
Length of Visible Light 12h 52m
Length of Day
11h 57m
Full, 100% of the Moon is Illuminated
Mar 16
Full
Mar 23
Last Quarter
Mar 30
New
Apr 7
First Quarter
Apr 15
Full

Hourly Weather History & Observations

Time (MDT) Temp. Windchill Dew Point Humidity Pressure Visibility Wind Dir Wind Speed Gust Speed Precip Events Conditions
12:15 AM 33.3 °F 27.1 °F 26.2 °F 75% 30.30 in 10.0 mi NE 6.9 mph - N/A   Overcast
12:35 AM 32.9 °F 25.3 °F 26.1 °F 76% 30.31 in 10.0 mi NE 9.2 mph - N/A   Overcast
12:55 AM 32.9 °F 25.9 °F 26.1 °F 76% 30.33 in 10.0 mi NNE 8.1 mph - N/A   Overcast
1:15 AM 32.0 °F 22.1 °F 25.9 °F 78% 30.33 in 10.0 mi NE 13.8 mph - N/A   Overcast
1:35 AM 31.8 °F 21.8 °F 25.9 °F 79% 30.33 in 10.0 mi NNE 13.8 mph - N/A   Overcast
1:55 AM 31.1 °F 21.4 °F 25.3 °F 79% 30.34 in 10.0 mi NNE 12.7 mph - N/A   Overcast
2:15 AM 31.1 °F 22.4 °F 25.3 °F 79% 30.33 in 10.0 mi NNE 10.4 mph - N/A   Overcast
2:35 AM 30.7 °F 23.3 °F 25.2 °F 80% 30.33 in 10.0 mi NNE 8.1 mph - N/A   Overcast
2:55 AM 30.6 °F 23.8 °F 25.3 °F 81% 30.33 in 10.0 mi North 6.9 mph - N/A   Overcast
3:15 AM 30.4 °F 23.6 °F 25.5 °F 82% 30.33 in 10.0 mi NW 6.9 mph - N/A   Overcast
3:35 AM 30.7 °F 22.0 °F 25.7 °F 82% 30.31 in 10.0 mi NNW 10.4 mph - N/A   Overcast
3:55 AM 30.9 °F 21.7 °F 25.5 °F 80% 30.30 in 10.0 mi NNW 11.5 mph - N/A   Overcast
4:15 AM 30.9 °F 23.5 °F 25.3 °F 80% 30.30 in 10.0 mi North 8.1 mph - N/A   Overcast
4:35 AM 31.1 °F 24.5 °F 25.5 °F 80% 30.30 in 10.0 mi North 6.9 mph - N/A   Overcast
4:55 AM 31.1 °F 24.5 °F 25.2 °F 79% 30.30 in 10.0 mi North 6.9 mph - N/A   Overcast
5:15 AM 31.1 °F 23.1 °F 24.8 °F 77% 30.30 in 10.0 mi North 9.2 mph - N/A   Overcast
5:35 AM 30.9 °F 23.5 °F 24.4 °F 77% 30.30 in 10.0 mi North 8.1 mph - N/A   Overcast
6:15 AM 30.6 °F 23.1 °F 23.9 °F 76% 30.29 in 10.0 mi NNE 8.1 mph - N/A   Overcast
6:35 AM 30.6 °F 24.7 °F 23.5 °F 75% 30.30 in 10.0 mi North 5.8 mph - N/A   Overcast
6:55 AM 30.7 °F 26.0 °F 24.1 °F 76% 30.30 in 10.0 mi North 4.6 mph - N/A   Overcast
7:15 AM 30.7 °F 24.1 °F 24.3 °F 77% 30.30 in 10.0 mi NNW 6.9 mph - N/A   Overcast
7:35 AM 30.7 °F 24.9 °F 23.9 °F 76% 30.32 in 10.0 mi NW 5.8 mph - N/A   Overcast
7:55 AM 30.4 °F 23.6 °F 23.5 °F 76% 30.31 in 10.0 mi NNW 6.9 mph - N/A   Overcast
8:15 AM 30.9 °F 25.2 °F 24.1 °F 76% 30.33 in 10.0 mi North 5.8 mph - N/A   Overcast
8:35 AM 31.1 °F 26.4 °F 24.4 °F 76% 30.31 in 10.0 mi NNW 4.6 mph - N/A   Overcast
8:55 AM 31.8 °F 26.2 °F 24.6 °F 75% 30.29 in 10.0 mi NW 5.8 mph - N/A   Overcast
9:15 AM 32.0 °F 25.6 °F 25.7 °F 78% 30.30 in 10.0 mi West 6.9 mph - N/A   Overcast
9:35 AM 32.2 °F 25.8 °F 25.5 °F 76% 30.29 in 10.0 mi NW 6.9 mph - N/A   Overcast
9:55 AM 32.4 °F 26.9 °F 25.9 °F 77% 30.29 in 10.0 mi West 5.8 mph - N/A   Overcast
10:15 AM 32.9 °F 27.5 °F 26.1 °F 76% 30.29 in 10.0 mi West 5.8 mph - N/A   Overcast
10:35 AM 34.2 °F 29.0 °F 27.9 °F 78% 30.27 in 10.0 mi West 5.8 mph - N/A   Overcast
10:55 AM 35.1 °F 30.1 °F 28.2 °F 76% 30.27 in 10.0 mi West 5.8 mph - N/A   Overcast
11:15 AM 35.8 °F 30.1 °F 28.2 °F 74% 30.26 in 10.0 mi WNW 6.9 mph - N/A   Overcast
11:35 AM 36.3 °F 32.5 °F 28.4 °F 73% 30.25 in 10.0 mi West 4.6 mph - N/A   Mostly Cloudy
11:55 AM 37.6 °F 33.1 °F 29.3 °F 72% 30.23 in 10.0 mi WNW 5.8 mph - N/A   Mostly Cloudy
12:15 PM 39.6 °F 35.4 °F 30.0 °F 69% 30.22 in 10.0 mi West 5.8 mph - N/A   Scattered Clouds
12:55 PM 43.5 °F 40.1 °F 30.9 °F 61% 30.18 in 10.0 mi WSW 5.8 mph - N/A   Clear
1:15 PM 44.6 °F 40.2 °F 30.9 °F 59% 30.16 in 10.0 mi SSW 8.1 mph 18.4 mph N/A   Clear
1:35 PM 46.4 °F 43.5 °F 30.0 °F 53% 30.14 in 10.0 mi WSW 5.8 mph - N/A   Clear
1:55 PM 48.4 °F - 29.8 °F 49% 30.12 in 10.0 mi SSW 6.9 mph - N/A   Clear
2:15 PM 49.1 °F - 30.0 °F 48% 30.11 in 10.0 mi WSW 8.1 mph - N/A   Clear
2:35 PM 50.2 °F - 29.7 °F 45% 30.09 in 10.0 mi SW 9.2 mph 16.1 mph N/A   Clear
2:55 PM 50.5 °F - 29.8 °F 45% 30.08 in 10.0 mi SW 10.4 mph - N/A   Clear
3:15 PM 52.2 °F - 29.8 °F 42% 30.07 in 10.0 mi WSW 6.9 mph - N/A   Clear
3:35 PM 52.5 °F - 30.0 °F 42% 30.06 in 10.0 mi WSW 9.2 mph 16.1 mph N/A   Clear
3:55 PM 53.4 °F - 29.7 °F 40% 30.04 in 10.0 mi SSW 6.9 mph - N/A   Clear
4:15 PM 54.0 °F - 29.5 °F 39% 30.04 in 10.0 mi SW 8.1 mph - N/A   Clear
4:35 PM 54.9 °F - 28.4 °F 36% 30.01 in 10.0 mi SSW 10.4 mph - N/A   Clear
4:55 PM 55.0 °F - 27.7 °F 35% 30.00 in 10.0 mi SSW 5.8 mph - N/A   Clear
5:15 PM 55.0 °F - 28.4 °F 36% 29.99 in 10.0 mi SW 4.6 mph - N/A   Clear
5:35 PM 55.0 °F - 28.8 °F 37% 29.99 in 10.0 mi South 8.1 mph - N/A   Clear
5:55 PM 55.4 °F - 28.8 °F 36% 29.99 in 10.0 mi South 8.1 mph - N/A   Clear
6:15 PM 54.0 °F - 29.1 °F 39% 29.97 in 10.0 mi South 9.2 mph - N/A   Clear
6:35 PM 52.9 °F - 30.2 °F 42% 29.97 in 10.0 mi South 8.1 mph - N/A   Clear
6:55 PM 51.3 °F - 29.8 °F 44% 29.96 in 10.0 mi South 9.2 mph - N/A   Clear
7:15 PM 48.7 °F - 29.3 °F 47% 29.95 in 10.0 mi South 11.5 mph - N/A   Clear
7:35 PM 47.5 °F - 28.4 °F 48% 29.95 in 10.0 mi South 10.4 mph - N/A   Clear
7:55 PM 46.4 °F 42.4 °F 28.2 °F 49% 29.95 in 10.0 mi South 8.1 mph - N/A   Clear
8:15 PM 45.3 °F 41.1 °F 28.0 °F 51% 29.94 in 10.0 mi South 8.1 mph - N/A   Clear
8:35 PM 44.6 °F 39.2 °F 27.9 °F 52% 29.94 in 10.0 mi SSW 10.4 mph - N/A   Clear
8:55 PM 43.5 °F 37.5 °F 28.0 °F 54% 29.94 in 10.0 mi SSW 11.5 mph 16.1 mph N/A   Clear
9:15 PM 43.0 °F 36.4 °F 27.7 °F 55% 29.93 in 10.0 mi SSW 12.7 mph - N/A   Clear
9:35 PM 42.3 °F 36.8 °F 27.5 °F 56% 29.92 in 10.0 mi SSW 9.2 mph - N/A   Clear
9:55 PM 41.4 °F 39.4 °F 27.7 °F 58% 29.92 in 10.0 mi WSW 3.5 mph - N/A   Clear
10:15 PM 41.4 °F 39.4 °F 28.0 °F 59% 29.91 in 10.0 mi West 3.5 mph - N/A   Clear
10:35 PM 41.9 °F - 28.0 °F 58% 29.90 in 10.0 mi Calm Calm - N/A   Clear
10:55 PM 41.5 °F 38.6 °F 27.7 °F 58% 29.89 in 10.0 mi West 4.6 mph - N/A   Clear
11:15 PM 40.6 °F 37.5 °F 27.5 °F 59% 29.88 in 10.0 mi WSW 4.6 mph - N/A   Clear
11:35 PM 38.8 °F - 27.5 °F 64% 29.88 in 10.0 mi Calm Calm - N/A   Clear
11:55 PM 36.7 °F - 27.5 °F 69% 29.86 in 10.0 mi Calm Calm - N/A   Clear